Reflectivity
-20 -20 -20 -20 -20 -20 -20 -20 -20 -20 -20 -20 -20 -20 -20 -20 -20 -20 -20 -20 -20 -20 -20 -20 -20 -20 -20 -20 -20 -20 -20 -20 -20 -20 -20 -20 -20 -20 -20 -20 -20 -20 -20 -20 -20
-20 -20 -20 -20 -20 -20 -20 -20 -20 -20 -20 -20 -20 -20 -20 -20 -20 -20 -20 -20 -20 -20 -20 -20 -20 -20 -20 -20 -20 -20 -20 -20 -20 -20 -20 -20 -20 -20 -20 -20 -20 -20 -20 -20 -20
-20 -20 -20 -20 -20 -20 -20 -20 -20 -20 -20 -20 -20 -20 -20 -20 -20 -20 -20 -20 -20 -20 -20 -20 -20 -20 -20 -20 -20 -20 -20 -20 -20 -20 -20 -20 -20 -20 -20 -20 -20 -20 -20 -20 -20
-20 -20 -20 -20 -20 -20 -20 -20 -20 -20 -20 -20 -20 -20 -20 -20 -20 -20 -20 -20 -20 -20 -20 -20 -20 -20 -20 -20 -20 -20 -20 -20 -20 -20 -20 -20 -20 -20 -20 -20 -20 -20 -20 -20 -20
-20 -20 -20 -20 -20 -20 -20 -20 -20 -20 -20 -20 -20 -20 -20 -20 -20 -20 -20 -20 -20 -20 -20 -20 -20 -20 -20 -20 -20 -20 -20 -20 -20 -20 -20 -20 -20 -20 -20 -20 -20 -20 -20 -20 -20
-20 -20 -20 -20 -20 -20 -20 -20 -20 -20 -20 -20 -20 -20 -20 -20 -20 -20 -20 -20 -20 -20 -20 -20 -20 -20 -20 -20 -20 -20 -20 -20 -20 -20 -20 -20 -20 -20 -20 -20 -20 -20 -20 -20 -20
-20 -20 -20 -20 -20 -20 -20 -20 -20 -20 -20 -20 -20 -20 -20 -20 -20 -20 -20 -20 -20 -20 -20 -20 -20 -20 -20 -20 -20 -20 -20 -20 -20 -20 -20 -20 -20 -20 -20 -20 -20 -20 -20 -20 -20
-20 -20 -20 -20 -20 -20 -20 -20 -20 -20 -20 -20 -20 -20 -20 -20 -20 -20 -20 -20 -20 -20 -20 -20 -20 -20 -20 -20 -20 -20 -20 -20 -20 -20 -20 -20 -20 -20 -20 -20 -20 -20 -20 -20 -20
-20 -20 -20 -20 -20 -20 -20 -20 -20 -20 -20 -20 -20 -20 -20 -20 -20 -20 -20 -20 -20 -20 -20 -20 -20 -20 -20 -20 -20 -20 -20 -20 -20 -20 -20 -20 -20 -20 -20 -20 -20 -20 -20 -20 -20
-20 -20 -20 -20 -20 -20 -20 -20 -20 -20 -20 -20 -20 -20 -20 -20 -20 -20 -20 -20 -20 -20 -20 -20 -20 -20 -20 -20 -20 -20 -20 -20 -20 -20 -20 -20 -20 -20 -20 -20 -20 -20 -20 -20 -20
-20 -20 -20 -20 -20 -20 -20 -20 -20 -20 -20 -20 -20 -20 -20 -20 -20 -20 -20 -20 -20 -20 -20 -20 -20 -20 -20 -20 -20 -20 -20 -20 -20 -20 -20 -20 -20 -20 -20 -20 -20 -20 -20 -20 -20
-20 -20 -20 -20 -20 -20 -20 -20 -20 -20 -20 -20 -20 -20 -20 -20 -20 -20 -20 -20 -20 -20 -20 -20 -20 -20 -20 -20 -20 -20 -20 -20 -20 -20 -20 -20 -20 -20 -20 -20 -20 -20 -20 -20 -20
-20 -20 -20 -20 -20 -20 -20 -20 -20 -20 -20 -20 -20 -20 -20 -20 -20 -20 -20 -20 -20 -20 -20 -20 -20 -20 -20 -20 -20 -20 -20 -20 -20 -20 -20 -20 -20 -20 -20 -20 -20 -20 -20 -20 -20
-20 -20 -20 -20 -20 -20 -20 -20 -20 -20 -20 -20 -20 -20 -20 -20 -20 -20 -20 -20 -20 -20 -20 -20 -20 -20 -20 -20 -20 -20 -20 -20 -20 -20 -20 -20 -20 -20 -20 -20 -20 -20 -20 -20 -20
-20 -20 -20 -20 -20 -20 -20 -20 -20 -20 -20 -20 -20 -20 -20 -20 -20 -20 -20 -20 -20 -20 -20 -20 -20 -20 -20 -20 -20 -20 -20 -20 -20 -20 -20 -20 -20 -20 -20 -20 -20 -20 -20 -20 -20
-20 -20 -20 -20 -20 -20 -20 -20 -20 -20 -20 -20 -20 -20 -20 -20 -20 -20 -20 -20 -20 -20 -20 -20 -20 -20 -20 -20 -20 -20 -20 -20 -20 -20 -20 -20 -20 -20 -20 -20 -20 -20 -20 -20 -20
-20 -20 -20 -20 -20 -20 -20 -20 -20 -20 -20 -20 -20 -20 -20 -20 -20 -20 -20 -20 -20 -20 -20 -20 -20 -20 -20 -20 -20 -20 -20 -20 -20 -20 -20 -20 -20 -20 -20 -20 -20 -20 -20 -20 -20
-20 -20 -20 -13 -20 -20 -20 -20 -20 -20 -20 -20 -20 -20 -20 -20 -20 -20 -20 -20 -20 -20 -20 -20 -20 -20 -20 -20 -20 -20 -20 -20 -20 -20 -20 -20 -20 -20 -20 -20 -20 -20 -20 -20 -20
-20 -20 -20 -12 -20 -20 -20 -20 -20 -20 -20 -20 -20 -20 -20 -20 -20 -20 -20 -20 -20 -20 -20 -20 -20 -20 -20 -20 -20 -20 -20 -20 -20 -20 -20 -20 -20 -20 -20 -20 -20 -20 -20 -20 -20
-0 -20 -20 -20 -20 -20 -20 -20 -20 -20 -20 -20 -20 -20 -20 -20 -20 -20 -20 -20 -20 -20 -20 -20 -20 -20 -20 -20 -20 -20 -20 -20 -20 -20 -20 -20 -20 -20 -20 -20 -20 -20 -20 -20 -20
-9 -11 -20 -20 -20 -20 -20 -20 -20 -20 -20 -20 -20 -20 -20 -20 -20 -20 -20 -20 -20 -20 -20 -20 -20 -20 -20 -20 -20 -20 -20 -20 -20 -20 -20 -20 -20 -20 -20 -20 -20 -20 -20 -20 -20
-20 -0 -20 -20 -20 -20 -20 -20 -20 -20 -20 -20 -20 -20 -20 -20 -20 -20 -20 -20 -20 -20 -20 -20 -20 -20 -20 -20 -20 -20 -20 -20 -20 -20 -20 -20 -20 -20 -20 -20 -20 -20 -20 -20 -20
-20 -16 4 -20 -20 -20 -20 -20 -20 -20 -20 -20 -20 -20 -20 -20 -20 -20 -20 -20 -20 -20 -20 -20 -20 -20 -20 -20 -20 -20 -20 -20 -20 -20 -20 -20 -20 -20 -20 -20 -20 -20 -20 -20 -20
-20 -20 2 -19 -17 -20 -20 -20 -20 -20 -20 -20 -20 -20 -20 -20 -20 -20 -20 -20 -20 -20 -20 -20 -20 -20 -20 -20 -20 -20 -20 -20 -20 -20 -20 -20 -20 -20 -20 -20 -20 -20 -20 -20 -20
-20 -20 -16 -5 -20 -11 -20 -20 -20 -20 -20 -20 -20 -20 -20 -20 -20 -20 -20 -20 -20 -20 -20 -20 -20 -20 -20 -20 -20 -20 -20 -20 -20 -20 -20 -20 -20 -20 -20 -20 -20 -20 -20 -20 -20
-20 -20 -20 6 -20 3 -20 -20 -20 -20 -20 -20 -20 -20 -20 -20 -20 -20 -20 -20 -20 -20 -20 -20 -20 -20 -20 -20 -20 -20 -20 -20 -20 -20 -20 -20 -20 -20 -20 -20 -20 -20 -20 -20 -20
-20 -17 -17 5 -13 -4 -19 -20 -20 -20 -20 -20 -20 -20 -20 -20 -20 -20 -20 -20 -20 -20 -20 -20 -20 -20 -20 -20 -20 -20 -20 -20 -20 -20 -20 -20 -20 -20 -20 -20 -20 -20 -20 -20 -20
Wind_Speed
12 11 10 10 9 8 7 7 7 9 10 10 10 10 11 12 16 4 5 6 8 15 9 10 7 3 1 3 3 3 3 7 7 6 10 11 7 8 8 11 12 7 8 5 8
12 11 10 9 8 9 8 9 8 9 10 10 10 10 11 9 8 11 4 9 9 6 6 9 5 3 4 5 4 6 5 6 6 7 9 6 10 8 7 9 9 9 9 8 8
12 13 11 9 8 9 9 9 9 9 10 10 10 11 10 6 8 8 11 13 8 3 8 11 2 4 6 5 7 6 5 8 10 11 12 10 7 4 7 7 6 7 7 8 7
13 12 12 10 9 9 10 10 10 10 11 10 10 11 6 4 2 9 13 12 8 6 9 5 6 4 4 6 4 7 8 8 7 10 11 9 7 9 11 5 4 3 4 7 9
13 12 11 11 9 9 10 11 10 11 11 10 10 9 7 5 5 10 11 10 7 5 4 7 5 7 6 8 14 14 12 10 9 10 9 8 9 8 7 3 4 3 4 7 8
14 13 12 11 11 9 11 12 12 11 11 10 9 5 5 3 3 8 8 11 9 9 12 8 10 14 9 4 7 11 12 12 9 8 9 9 7 3 5 5 2 4 5 7 8
15 13 13 13 11 12 9 13 13 12 10 10 7 4 4 5 1 6 4 9 11 8 8 6 4 3 7 10 14 16 11 9 7 8 4 9 6 6 2 5 5 6 7 8 8
15 15 14 13 13 12 11 12 14 10 9 8 3 5 3 2 5 5 9 7 6 9 8 8 10 9 5 14 10 4 7 6 9 7 7 2 3 6 1 3 3 6 7 7 8
15 15 14 14 14 13 13 12 13 9 6 6 5 7 5 3 1 4 4 3 3 4 4 5 5 6 8 7 5 7 5 6 9 10 6 6 1 8 2 2 4 7 8 7 8
15 14 14 16 13 14 16 8 3 7 6 7 7 4 4 3 2 3 2 3 4 2 5 6 4 6 2 5 3 6 5 3 7 8 6 6 6 7 5 3 4 7 7 7 8
16 14 15 15 15 14 12 3 3 4 3 3 4 2 5 4 3 5 2 4 6 5 5 3 1 6 6 5 6 6 6 3 4 4 3 8 5 10 7 6 3 6 7 7 8
16 16 15 15 16 13 5 6 4 3 2 3 3 4 2 2 3 10 10 4 4 5 2 2 6 5 3 3 4 5 7 5 3 4 4 7 5 8 8 5 1 5 6 6 8
15 16 15 15 18 6 6 5 2 3 5 5 3 2 2 3 4 7 10 5 4 7 7 7 4 0 2 3 9 3 4 5 6 3 7 6 7 8 7 5 6 5 6 7 7
14 15 16 19 4 0 1 2 1 3 4 8 6 4 4 1 3 4 4 3 2 3 6 6 2 1 3 2 6 2 5 4 6 1 2 6 4 6 8 7 4 7 7 7 8
13 15 16 3 10 4 4 2 3 3 5 6 5 2 3 1 5 3 2 4 6 5 3 3 3 5 4 3 4 2 3 4 5 5 7 7 2 3 7 6 5 7 6 7 7
14 14 16 1 5 3 3 3 4 4 5 4 5 7 7 4 3 4 2 3 4 4 9 4 1 3 4 3 1 2 6 6 4 4 3 7 2 5 4 4 4 6 6 6 7
14 13 8 6 4 7 4 3 4 6 3 6 6 5 9 6 5 2 2 4 2 3 5 5 3 4 4 5 5 6 5 2 3 2 2 5 2 1 8 5 3 3 5 6 7
15 13 5 5 5 5 4 4 7 3 5 3 4 5 5 7 3 4 4 4 2 3 4 4 3 5 5 4 4 4 3 2 4 4 4 3 4 3 8 5 6 3 3 6 6
17 2 3 3 1 2 4 7 4 6 5 7 5 6 7 4 1 6 4 4 5 5 3 4 3 2 3 4 2 4 0 2 3 3 3 5 4 4 6 7 6 3 5 6 7
4 4 4 6 4 2 4 9 7 4 3 5 5 8 4 10 5 5 7 3 4 3 4 2 1 1 3 2 2 3 1 1 1 3 5 7 5 5 7 0 4 5 5 6 6
3 2 1 1 3 3 7 9 8 3 3 2 4 2 5 4 5 5 5 1 1 3 3 3 2 3 2 4 3 2 3 2 0 2 2 5 4 4 7 3 3 4 5 4 4
3 3 1 2 4 4 8 8 3 4 1 1 3 3 2 4 4 2 4 6 4 2 1 3 3 1 4 4 4 3 4 2 4 2 1 4 8 7 8 5 6 2 5 3 4
3 3 2 2 4 7 5 2 4 3 4 3 4 3 2 3 3 2 6 1 1 2 1 2 3 1 1 1 3 4 4 2 4 3 5 3 7 6 8 6 7 4 4 3 5
3 3 2 2 5 5 10 8 5 3 3 2 2 4 3 3 2 4 4 3 2 1 1 2 3 4 4 2 2 4 5 5 5 2 4 8 3 7 7 7 6 6 4 3 4
3 3 2 4 5 10 8 5 12 5 4 4 4 9 7 5 5 5 5 5 3 4 3 2 3 1 5 5 3 4 6 9 8 8 4 4 5 6 7 7 6 7 4 2 3
2 2 1 3 3 4 7 3 9 8 8 5 6 11 8 5 4 6 8 7 5 5 5 3 2 2 4 6 4 5 8 9 11 9 13 14 14 7 7 7 6 7 5 2 2
1 2 1 1 2 2 5 11 7 9 6 2 6 6 9 5 9 9 7 5 8 8 7 6 2 1 3 3 4 8 13 12 7 8 6 6 4 8 5 6 7 7 6 3 2
Wind_Direction
358 354 355 344 338 336 333 331 333 327 320 314 316 317 315 317 305 237 39 323 297 313 312 272 245 243 85 64 6 289 267 28 29 35 107 121 110 89 113 97 71 75 67 15 354
359 354 355 352 342 330 330 325 326 320 313 312 312 309 310 328 279 71 304 277 274 286 257 243 268 191 87 19 8 21 50 45 10 99 124 124 112 134 114 72 47 46 26 8 357
360 356 350 356 347 332 328 322 319 317 312 310 309 308 319 321 277 45 346 324 307 258 247 285 316 40 49 64 7 8 85 95 55 83 99 100 106 53 126 86 56 16 356 356 358
354 354 345 351 348 336 326 320 317 316 310 307 305 306 314 267 13 6 341 319 304 282 260 251 244 106 85 31 88 99 86 97 93 94 112 95 84 73 50 81 39 358 294 10 1
353 346 343 345 342 338 325 315 312 310 303 297 295 310 293 217 42 357 337 335 299 287 292 295 286 134 111 122 84 93 103 93 94 82 95 107 76 102 91 114 220 268 23 24 4
346 343 339 338 333 335 326 313 310 304 297 295 293 320 250 293 314 12 7 12 4 32 40 23 63 81 68 41 41 113 108 112 114 109 122 123 137 194 106 255 261 27 1 31 16
343 343 337 331 332 322 326 312 306 300 291 291 289 274 49 79 57 355 44 33 20 56 70 32 104 58 100 95 111 125 114 126 141 156 129 147 159 91 106 252 29 344 16 35 3
348 338 335 328 323 319 315 308 301 289 287 277 295 274 72 109 343 21 331 76 66 70 74 79 77 57 66 119 156 137 165 171 176 165 149 179 117 122 170 351 1 353 22 18 6
344 336 333 324 322 316 305 304 293 278 269 268 271 210 118 134 219 8 22 28 109 98 86 128 86 103 154 173 180 178 281 143 166 190 131 207 97 133 193 270 339 10 19 6 3
338 338 329 320 321 316 305 268 325 301 233 250 268 260 173 89 46 301 89 287 287 247 203 213 172 171 25 356 347 336 278 97 100 177 190 207 180 153 164 272 359 1 12 11 4
336 337 326 324 317 319 324 247 214 203 57 25 5 118 123 101 158 74 332 284 236 213 271 174 22 45 30 9 318 289 297 317 93 116 259 236 212 162 167 237 29 347 23 8 8
337 332 327 325 315 318 284 271 65 351 213 150 131 99 50 316 231 47 345 243 194 260 160 216 70 48 314 3 292 293 304 63 112 130 212 280 227 142 161 216 232 347 30 11 7
337 333 328 328 312 286 259 23 1 314 258 158 160 126 103 271 50 2 340 307 353 61 57 61 62 116 318 340 352 116 21 356 321 164 233 284 249 142 174 133 235 46 51 25 6
337 336 328 328 304 335 227 104 247 310 268 147 196 120 170 119 118 7 355 347 162 67 68 75 145 332 263 105 352 308 4 309 289 201 343 177 297 163 156 199 183 43 38 20 1
337 335 325 25 311 272 51 311 292 242 275 143 128 89 139 226 131 96 272 262 27 95 258 73 61 347 33 10 334 24 317 307 301 249 287 171 252 106 122 205 52 28 23 22 7
330 331 336 178 227 13 330 317 254 232 241 132 126 165 174 186 104 143 163 54 356 98 50 87 224 36 355 306 244 297 256 203 254 262 264 134 205 194 172 97 29 18 12 11 9
326 321 326 311 344 335 301 250 215 243 170 139 171 176 226 149 136 220 185 148 293 214 176 172 96 133 308 268 179 238 272 292 298 264 245 102 286 87 123 113 75 7 8 15 9
316 312 240 257 331 315 253 247 246 253 166 72 153 183 210 150 107 153 198 187 142 275 289 203 224 347 4 40 333 322 334 80 279 321 305 132 254 195 124 193 115 93 40 35 10
308 239 242 188 125 300 260 224 235 319 89 134 150 198 178 169 335 204 219 48 52 19 300 331 113 127 59 18 342 10 0 357 299 267 319 192 86 92 168 232 74 54 64 32 10
317 296 244 120 155 221 241 243 242 61 103 158 239 195 215 163 192 201 154 356 119 12 338 62 200 197 111 265 192 312 215 321 267 349 306 294 112 183 195 189 24 32 52 25 13
267 246 77 179 184 209 229 235 231 91 350 208 267 140 271 132 224 189 105 331 11 128 307 332 203 129 139 193 39 198 203 197 18 117 204 310 264 74 125 92 25 14 69 35 12
284 241 143 221 201 204 228 265 25 144 30 134 312 311 307 130 201 264 110 56 14 147 218 53 338 240 82 73 29 327 339 350 120 227 187 168 275 119 132 158 159 301 78 22 42
250 255 207 211 219 222 202 165 313 169 187 181 220 290 15 172 206 37 80 55 59 245 13 77 228 272 222 215 171 244 158 73 95 69 227 145 264 148 158 220 142 140 83 19 36
284 242 146 174 284 290 233 209 202 22 291 211 91 122 166 161 54 144 124 156 153 13 43 355 291 231 217 185 124 178 160 207 188 158 233 229 253 190 206 212 140 133 113 49 49
228 255 329 192 231 235 271 291 221 173 265 209 195 226 196 174 154 187 109 132 189 163 203 254 257 343 295 126 183 250 191 181 208 232 183 217 296 311 125 137 117 128 145 67 49
245 259 314 303 338 262 222 268 245 196 164 217 246 200 220 178 194 181 137 176 179 156 194 178 270 319 287 126 211 256 235 201 204 240 270 271 283 111 114 119 160 173 131 113 41
123 123 71 290 284 242 228 221 239 256 183 82 258 245 206 106 75 37 67 76 130 148 185 156 212 235 263 180 265 282 222 194 197 189 198 220 206 147 165 175 189 160 150 151 95